Weather in Mar'yanovka

Russia / Primorsky Krai     44°47′37″N   133°43′57″E
temp.,
°C
wind,
m/s
gust,
m/s
humid.,
%
clouds,
%
prec.,
mm/h
press.,
hPa
HPBL,
m
22 january, sat
sat2201:00−26se1110011 0.0 10349
04:00−27ese1110013 0.0 10349
07:00−28ese1110011 0.0 103410
10:00−22ese11935 0.0 103364
13:00−14nnw01755 0.0 1032372
16:00−12nnw127378 0.0 1030448
19:00−20n119913 0.0 10319
22:00−23ese1010024 0.0 10319
23 january, sun
sun2301:00−24ese1110040 0.0 10319
04:00−26se1110060 0.0 10319
07:00−26se1110037 0.0 10319
10:00−21e009513 0.0 103059
13:00−13nw128056 0.0 1029419
16:00−13nnw237976 0.0 1028540
19:00−21nw1110037 0.0 10299
22:00−23sse0010053 0.0 10309
24 january, mon
mon2401:00−24s1110099 0.0 10309
04:00−21s11100100 0.1 103021
07:00−21s11100100 0.1 103020
10:00−18ssw119686 0.1 103082
13:00−12w1182100 0.0 1029452
16:00−10nw127697 0.0 1027565
19:00−19ene119814 0.0 10289
22:00−21ese1110020 0.0 10289
25 january, tue
tue2501:00−23se1110052 0.0 10289
04:00−21ese1199100 0.0 102714
07:00−20ese1198100 0.0 102615
10:00−16ese1188100 0.0 102575
13:00−9ne1174100 0.0 1023307
16:00−8n1173100 0.0 1021380
19:00−14n1196100 0.0 10229
22:00−16nne0098100 0.0 10229
26 january, wed
wed2601:00−18sse11100100 0.0 10239
04:00−21sse1110098 0.0 10239
07:00−21sse1110099 0.0 10249
10:00−16ssw019588 0.1 102477
13:00−10wnw1281100 0.0 1022467
16:00−10nw2386100 0.1 1022557
19:00−15wnw119988 0.1 102521
22:00−16wsw119993 0.1 10269